Location: New Frontier Mobile Home Park
(32.8448°N, 116.9675°W)
Time: 22:32:38
(UTC+00:00)

Nadezhda 1 Rocket - Pass Details

Date: 14 July 2020
Orbit: 942 x 1005 km, 83.0° (Epoch: 05 August)

Event Time Altitude Azimuth Distance (km) Brightness Sun altitude
Rises 03:13:40 0° 0° (N) 3,734 7.5 -3.8°
Reaches altitude 10° 03:16:20 10° 6° (N) 2,777 6.7 -4.3°
Maximum altitude 03:22:29 49° 81° (E) 1,257 4.3 -5.4°
Drops below altitude 10° 03:28:32 10° 155° (SSE) 2,731 5.9 -6.5°
Sets 03:31:07 0° 161° (SSE) 3,667 6.5 -7.0°
